Aeroporto :
LOGIN :

Iscrizione | Disclaimer

   EN    FR    IT 

 










Sommario :    VFR   VFR Marginale   IFR   IFR Intensivo   IFR Molto Intensivo
Visibilità : 
Base nubi : 
>= 8 km
>= 3000ft
5 / 8 km
1000 / 3000 ft
1500m / 5 km
500 / 1000 ft
800 / 1500m
200 / 500 ft
< 800m
< 200 ft
Simboli :   Temporali  Nebbia  Neve Forte  Precipitazioni Forti  Vento > 20 kt
SIGMETs :   Varie  Temporali  Ghiacco  Turbolenza  Onda orograficha  Ceneri Vulcaniche







- Altitudine del aeroporto : 538 ft
- Codice IATA : TNF
- Carte del aeroporto


LFPN - Toussus Le Noble

ULTIMO METAR :
  • 181530Z AUTO 24010KT 210V270 9999 SCT037 BKN046 BKN054 23/15 Q1011 NOSIG

METARs OBSOLETI :
  • 181500Z AUTO 25007KT 9999 FEW033 SCT050 21/14 Q1011 NOSIG
  • 181430Z AUTO 24010KT 230V300 9999 FEW027 22/15 Q1011 NOSIG
  • 181400Z AUTO 24008KT 210V280 9999 SCT023 SCT030 BKN052 21/14 Q1011 NOSIG
  • 181330Z AUTO 26009KT 230V290 9999 BKN022 BKN027 BKN043 20/15 Q1011 NOSIG
  • 181300Z AUTO 27008KT 9999 SCT021 BKN030 20/15 Q1010 NOSIG

TAF TAF LFPN
Valido dal 18 a 15 ore il 19 a 00 ore UTC


181400Z 1815/1824 24006KT 9999 BKN030
ATIS : +33 1 39 56 54 70
Nessun NOTAM noto per questo aeroporto.



MetMap, La meteo Aeronautica in un colpo d'occhio ! - Copyright ORBIFLY Dicembre 2007 - Disclaimer

ORBIFLY MET'MAP TEAM :

Programmazione e sviluppo : Alexandra Zaïnal
Concezione e sviluppo : Baudouin d'Aumeries
Co-Programmazione e sviluppo : Marc-Olivier Méhu
Supporto tecnico e logistico : Manuel Goepfert
Aiuto per la traduzione : Arnaldo La Scala

Contatto : metmap@orbifly.com




FONTI E CREDITI :

   NOAA